Miscellaneous Local Product
Issued by NWS North Platte, NE

Home | Current Version | Previous Version | Text Only | Print | Product List | Glossary On
Versions: 1 2 3 4 5 6 7 8 9 10 11 12 13 14 15 16 17 18 19 20 21 22 23 24 25 26 27 28 29 30 31 32 33 34 35 36 37 38 39 40 41 42 43 44 45 46 47 48 49 50
598
AXUS43 KLBF 171610
MISLBF


WESTERN AND NORTH CENTRAL NEBRASKA HOURLY WEATHER ROUNDUP
NATIONAL WEATHER SERVICE NORTH PLATTE NE
1000 AM CST SUN DEC 17 2017

NOTE: "FAIR" INDICATES FEW OR NO CLOUDS BELOW 12,000 FEET WITH NO
SIGNIFICANT WEATHER AND/OR OBSTRUCTIONS TO VISIBILITY.

NOTE: STATIONS NOT REPORTING VARIABLES SUCH AS SKY/WEATHER OR
PRESSURE ARE PROVIDED BY RAWS AND APRS NETWORKS AND ARE NOT UNDER
NATIONAL WEATHER SERVICE QUALITY CONTROL.

...OBSERVATIONS IN AND NEAR THE EASTERN PANHANDLE OF NEBRASKA...

CITY           SKY/WX    TMP DP  RH WIND       PRES   REMARKS
PINE RIDGE     CLOUDY    31  29  92 W3        30.02S
GORDON         CLOUDY    31  30  94 W3        30.02S FOG
CHADRON        CLOUDY    31  29  92 S3        30.03S
ALLIANCE       CLOUDY    30  30 100 SW7       30.01S FOG     WCI  23
SIDNEY         CLOUDY    31  29  92 W8        30.03S WCI  23
CRESCENT LAKE    N/A     31  31 100 SW5         N/A  WCI  26
$$

...OBSERVATIONS IN NORTHERN NEBRASKA AND FAR SOUTHERN SOUTH DAKOTA...

CITY           SKY/WX    TMP DP  RH WIND       PRES   REMARKS
WINNER         CLOUDY    35  31  85 W3        30.05F
VALENTINE      CLOUDY    35  31  85 NW5       30.04S WCI  31
THEDFORD       CLOUDY    35  32  92 N3        30.04R
AINSWORTH      CLOUDY    33  33  99 NW5       30.04R WCI  29
O`NEILL        CLOUDY    33  33 100 N6        30.05R FOG     WCI  28
ORD            CLOUDY    35  30  82 N8        30.04S WCI  29
BROKEN BOW     CLOUDY    35  31  85 N8        30.03R WCI  29
VALENTINE NWR    N/A     31  30  95 NW6         N/A  WCI  25
HALSEY           N/A     33  31  94 NW3         N/A
BUTTE            N/A     32  31  96 NW3         N/A
EWING            N/A     30  29  95 CALM        N/A
$$

...OBSERVATIONS IN SOUTHWEST NEBRASKA AND FAR NORTHEAST COLORADO...

CITY           SKY/WX    TMP DP  RH WIND       PRES   REMARKS
WRAY           CLOUDY    34  34 100 NW7       30.06R WCI  28
HOLYOKE        PTSUNNY   34  32  93 CALM      30.05S
IMPERIAL       CLOUDY    34  33  96 NW3       30.05R
OGALLALA       CLOUDY    35  34  94 NW3       30.05R
NORTH PLATTE   CLOUDY    35  32  88 NW6       30.05S WCI  30
MCCOOK         CLOUDY    38  31  76 N5        30.06R WCI  34
LEXINGTON      CLOUDY    35  32  89 N7        30.05R WCI  29
STAPLETON        N/A     32  31  96 CALM        N/A
GOTHENBURG       N/A     36  30  79 NW3         N/A
CALLAWAY         N/A     34  32  94 N5          N/A  WCI  30
$$

...OBSERVATIONS IN CENTRAL LINCOLN COUNTY AREA...

CITY           SKY/WX    TMP DP  RH WIND       PRES   REMARKS
N.P. AIRPORT   CLOUDY    35  32  88 NW6       30.05S WCI  30
N.P. DOWNTOWN    N/A     34  31  90 CALM        N/A
N.P. SOUTHEAST   N/A     34  30  86 CALM        N/A
N.P. HILLCREST   N/A     34  33  95 CALM        N/A
$$

...SOME OBSERVATIONS FROM AROUND THE REGION...

CITY           SKY/WX    TMP DP  RH WIND       PRES   REMARKS
DENVER         CLOUDY    29  26  89 SE5       30.01S WCI  24
GRAND JUNCTION CLOUDY    24   8  50 SE7       30.08R WCI  16
LARAMIE        FOG       16  14  92 SE6       29.95R VSB 1/4 WCI   7
CHEYENNE       CLOUDY    26  24  92 SW7       29.97S WCI  18
CASPER         CLOUDY    22  18  85 W13       29.93F WCI  10
BISMARCK       SUNNY     23  20  88 CALM      30.02S
RAPID CITY     CLOUDY    31  26  82 S9        29.99F WCI  23
PIERRE         CLOUDY    32  31  96 CALM      30.05S
SIOUX FALLS    CLOUDY    27  27 100 NE5       30.04F FOG     WCI  22
OMAHA          CLOUDY    31  24  75 NW9       30.05R WCI  23
GRAND ISLAND   SUNNY     33  30  88 N14       30.04S WCI  23
SCOTTSBLUFF    CLOUDY    32  30  92 SE7       30.02F WCI  26
KANSAS CITY    CLOUDY    43  42  97 SW8       30.04R FOG
HILL CITY      SUNNY     34  29  82 N14       30.06R WCI  25
WICHITA        CLOUDY    46  41  82 W7        30.03S
DODGE CITY     CLOUDY    31  28  89 NW14      30.01S FOG     WCI  21
OKLAHOMA CITY  CLOUDY    44  42  93 S6        30.05R
DALLAS         CLOUDY    48  45  89 S8        30.07R
AMARILLO       SUNNY     34  27  75 NW17      30.01R WCI  23
$$




USA.gov is the U.S. government's official web portal to all federal, state and local government web resources and services.